time, Switch, Flow(0), Analog(2)
yyyy/mm/dd HH:MM:SS.fff, True=FILTERED|False=TOTAL, L/min, V
2023/06/18 05:00:01.807, True, 4.716, 0.130999
2023/06/18 05:00:02.311, True, 4.650, 0.129854
2023/06/18 05:00:02.816, True, 4.643, 0.131914
2023/06/18 05:00:03.319, True, 4.640, 0.132830
2023/06/18 05:00:03.815, True, 4.039, 0.132753
2023/06/18 05:00:04.320, True, 3.316, 0.129168
2023/06/18 05:00:04.823, True, 2.983, 0.129549
2023/06/18 05:00:05.319, True, 2.697, 0.131228
2023/06/18 05:00:05.824, True, 2.988, 0.131380
2023/06/18 05:00:06.327, True, 2.983, 0.131838
2023/06/18 05:00:06.823, True, 2.693, 0.132525
2023/06/18 05:00:07.328, True, 2.988, 0.131533
2023/06/18 05:00:07.831, True, 2.982, 0.133288
2023/06/18 05:00:08.335, True, 2.983, 0.130541
2023/06/18 05:00:08.832, True, 2.697, 0.130617
2023/06/18 05:00:09.335, True, 2.982, 0.129625
2023/06/18 05:00:09.839, True, 2.987, 0.130465
2023/06/18 05:00:10.336, True, 2.694, 0.129320
2023/06/18 05:00:10.839, True, 2.983, 0.130617
2023/06/18 05:00:11.343, True, 2.655, 0.130617
2023/06/18 05:00:11.839, True, 3.032, 0.130846
2023/06/18 05:00:12.343, True, 2.983, 0.129397
2023/06/18 05:00:12.848, True, 2.654, 0.130617
2023/06/18 05:00:13.344, True, 3.031, 0.131075
2023/06/18 05:00:13.848, True, 2.988, 0.130617
2023/06/18 05:00:14.352, True, 2.653, 0.131762
2023/06/18 05:00:14.855, True, 2.983, 0.130465
2023/06/18 05:00:15.352, True, 2.696, 0.131380
2023/06/18 05:00:15.856, True, 2.650, 0.131609
2023/06/18 05:00:16.359, True, 2.986, 0.131075
2023/06/18 05:00:16.855, True, 3.036, 0.129549
2023/06/18 05:00:17.359, True, 2.982, 0.129931
2023/06/18 05:00:17.863, True, 2.650, 0.128710
2023/06/18 05:00:18.359, True, 3.032, 0.131838
2023/06/18 05:00:18.864, True, 2.990, 0.129778
2023/06/18 05:00:19.368, True, 2.650, 0.130617
2023/06/18 05:00:19.863, True, 3.030, 0.131609
2023/06/18 05:00:20.367, True, 2.653, 0.132219
2023/06/18 05:00:20.871, True, 2.986, 0.131304
2023/06/18 05:00:21.375, True, 2.987, 0.132830
2023/06/18 05:00:21.871, True, 3.031, 0.130694
2023/06/18 05:00:22.375, True, 2.654, 0.130541
2023/06/18 05:00:22.879, True, 2.984, 0.130007
2023/06/18 05:00:23.375, True, 3.033, 0.129778
2023/06/18 05:00:23.879, True, 2.980, 0.130007
2023/06/18 05:00:24.383, True, 2.655, 0.129931
2023/06/18 05:00:24.880, True, 2.696, 0.131151
2023/06/18 05:00:25.384, True, 2.985, 0.131609
2023/06/18 05:00:25.888, True, 2.985, 0.131991
2023/06/18 05:00:26.383, True, 2.697, 0.130159
2023/06/18 05:00:26.887, True, 2.982, 0.131838
2023/06/18 05:00:27.391, True, 2.655, 0.132906
2023/06/18 05:00:27.888, True, 3.027, 0.133593
2023/06/18 05:00:28.391, True, 2.985, 0.133516
2023/06/18 05:00:28.895, True, 2.986, 0.132448
2023/06/18 05:00:29.399, True, 2.654, 0.132372
2023/06/18 05:00:29.896, True, 3.031, 0.134813
2023/06/18 05:00:30.400, True, 2.987, 0.133211
2023/06/18 05:00:30.903, True, 2.979, 0.139239
2023/06/18 05:00:31.399, True, 2.695, 0.137407
2023/06/18 05:00:31.904, True, 2.985, 0.136797
2023/06/18 05:00:32.407, True, 2.654, 0.136721
2023/06/18 05:00:32.904, True, 3.034, 0.136339
2023/06/18 05:00:33.407, True, 2.985, 0.135729
2023/06/18 05:00:33.904, True, 3.028, 0.137026
2023/06/18 05:00:34.408, True, 2.652, 0.136950
2023/06/18 05:00:34.912, True, 2.987, 0.138247
2023/06/18 05:00:35.408, True, 2.694, 0.137789
2023/06/18 05:00:35.911, True, 2.988, 0.135271
2023/06/18 05:00:36.416, True, 2.980, 0.138476
2023/06/18 05:00:36.911, True, 2.696, 0.135576
2023/06/18 05:00:37.415, True, 2.987, 0.137331
2023/06/18 05:00:37.920, True, 2.654, 0.137331
2023/06/18 05:00:38.424, True, 2.649, 0.137484
2023/06/18 05:00:38.919, True, 3.038, 0.137636
2023/06/18 05:00:39.423, True, 2.982, 0.137942
2023/06/18 05:00:39.927, True, 2.653, 0.138323
2023/06/18 05:00:40.424, True, 2.697, 0.135882
2023/06/18 05:00:40.927, True, 2.984, 0.137865
2023/06/18 05:00:41.423, True, 2.693, 0.138323
2023/06/18 05:00:41.927, True, 2.655, 0.137636
2023/06/18 05:00:42.431, True, 2.985, 0.138552
2023/06/18 05:00:42.927, True, 2.694, 0.138705
2023/06/18 05:00:43.431, True, 2.652, 0.137865
2023/06/18 05:00:43.935, True, 2.649, 0.136873
2023/06/18 05:00:44.431, True, 3.038, 0.138323
2023/06/18 05:00:44.935, True, 2.652, 0.138094
2023/06/18 05:00:45.439, True, 2.981, 0.138018
2023/06/18 05:00:45.935, True, 2.696, 0.138857
2023/06/18 05:00:46.439, True, 2.988, 0.137560
2023/06/18 05:00:46.943, True, 2.649, 0.137713
2023/06/18 05:00:47.439, True, 3.037, 0.138781
2023/06/18 05:00:47.943, True, 2.649, 0.138094
2023/06/18 05:00:48.447, True, 2.656, 0.136950
2023/06/18 05:00:48.943, True, 3.034, 0.138170
2023/06/18 05:00:49.447, True, 2.984, 0.138247
2023/06/18 05:00:49.951, True, 2.651, 0.138705
2023/06/18 05:00:50.447, True, 2.694, 0.136339
2023/06/18 05:00:50.952, True, 2.984, 0.137865
2023/06/18 05:00:51.455, True, 2.983, 0.137560
2023/06/18 05:00:51.951, True, 2.696, 0.137560
2023/06/18 05:00:52.456, True, 2.989, 0.139849
2023/06/18 05:00:52.959, True, 2.982, 0.139239
2023/06/18 05:00:53.463, True, 2.651, 0.135958
2023/06/18 05:00:53.960, True, 3.035, 0.137026
2023/06/18 05:00:54.464, True, 2.656, 0.137636
2023/06/18 05:00:54.967, True, 2.984, 0.136492
2023/06/18 05:00:55.463, True, 2.694, 0.135805
2023/06/18 05:00:55.967, True, 2.652, 0.135882
2023/06/18 05:00:56.471, True, 2.983, 0.137865
2023/06/18 05:00:56.967, True, 2.700, 0.139162
2023/06/18 05:00:57.471, True, 2.651, 0.135958
2023/06/18 05:00:57.975, True, 2.654, 0.134356
2023/06/18 05:00:58.472, True, 3.029, 0.138628
2023/06/18 05:00:58.975, True, 2.655, 0.138476
2023/06/18 05:00:59.479, True, 2.983, 0.136416
2023/06/18 05:00:59.983, True, 2.984, 0.138628
2023/06/18 05:01:00.479, True, 2.695, 0.140764
2023/06/18 05:01:00.983, True, 2.986, 0.138170
2023/06/18 05:01:01.488, True, 2.987, 0.135882
2023/06/18 05:01:01.984, True, 2.691, 0.137484
2023/06/18 05:01:02.487, True, 2.984, 0.136187
2023/06/18 05:01:02.991, True, 2.988, 0.136873
2023/06/18 05:01:03.487, True, 2.696, 0.137636
2023/06/18 05:01:03.991, True, 2.981, 0.137255
2023/06/18 05:01:04.495, True, 2.652, 0.136568
2023/06/18 05:01:04.000, True, 2.990, 0.137789
2023/06/18 05:01:05.495, True, 2.692, 0.136645
2023/06/18 05:01:05.999, True, 2.986, 0.137942
2023/06/18 05:01:06.503, True, 2.649, 0.137407
2023/06/18 05:01:06.000, True, 2.700, 0.136416
2023/06/18 05:01:07.503, True, 2.983, 0.135653
2023/06/18 05:01:08.007, True, 2.652, 0.137102
2023/06/18 05:01:08.512, True, 2.983, 0.135500
2023/06/18 05:01:09.007, True, 3.034, 0.136034
2023/06/18 05:01:09.511, True, 2.651, 0.138323
2023/06/18 05:01:10.015, True, 2.656, 0.135882
2023/06/18 05:01:10.518, True, 2.980, 0.136721
2023/06/18 05:01:11.015, True, 2.695, 0.137865
2023/06/18 05:01:11.519, True, 2.985, 0.136950
2023/06/18 05:01:12.015, True, 2.696, 0.136263
2023/06/18 05:01:12.519, True, 2.656, 0.137713
2023/06/18 05:01:13.023, True, 2.649, 0.136645
2023/06/18 05:01:13.519, True, 3.033, 0.137942
2023/06/18 05:01:14.023, True, 2.984, 0.137484
2023/06/18 05:01:14.527, True, 2.655, 0.135958
2023/06/18 05:01:15.023, True, 3.034, 0.136187
2023/06/18 05:01:15.527, True, 2.648, 0.136721
2023/06/18 05:01:16.031, True, 2.984, 0.136645
2023/06/18 05:01:16.536, True, 2.985, 0.134203
2023/06/18 05:01:17.031, True, 2.699, 0.137789
2023/06/18 05:01:17.536, True, 2.980, 0.136568
2023/06/18 05:01:18.039, True, 2.656, 0.138399
2023/06/18 05:01:18.536, True, 3.027, 0.137407
2023/06/18 05:01:19.039, True, 2.988, 0.138705
2023/06/18 05:01:19.543, True, 2.652, 0.134737
2023/06/18 05:01:20.039, True, 3.032, 0.139773
2023/06/18 05:01:20.544, True, 2.654, 0.136110
2023/06/18 05:01:21.047, True, 2.981, 0.136492
2023/06/18 05:01:21.543, True, 2.700, 0.135195
2023/06/18 05:01:22.047, True, 2.982, 0.133135
2023/06/18 05:01:22.552, True, 2.655, 0.135729
2023/06/18 05:01:23.055, True, 2.984, 0.138018
2023/06/18 05:01:23.551, True, 3.034, 0.135424
2023/06/18 05:01:24.055, True, 2.979, 0.135348
2023/06/18 05:01:24.559, True, 2.653, 0.135576
2023/06/18 05:01:25.055, True, 3.034, 0.134966
2023/06/18 05:01:25.559, True, 2.656, 0.136263
2023/06/18 05:01:26.063, True, 2.979, 0.136034
2023/06/18 05:01:26.567, True, 2.653, 0.136645
2023/06/18 05:01:27.063, True, 3.037, 0.133822
2023/06/18 05:01:27.567, True, 2.652, 0.136873
2023/06/18 05:01:28.063, True, 3.029, 0.134966
2023/06/18 05:01:28.567, True, 2.653, 0.136721
2023/06/18 05:01:29.071, True, 2.984, 0.136263
2023/06/18 05:01:29.567, True, 2.695, 0.135882
2023/06/18 05:01:30.071, True, 2.989, 0.136110
2023/06/18 05:01:30.575, True, 2.984, 0.139544
2023/06/18 05:01:31.079, True, 2.651, 0.136034
2023/06/18 05:01:31.575, True, 3.032, 0.136034
2023/06/18 05:01:32.079, True, 2.985, 0.135653
2023/06/18 05:01:32.575, True, 2.694, 0.135348
2023/06/18 05:01:33.079, True, 2.653, 0.136034
2023/06/18 05:01:33.583, True, 2.652, 0.135729
2023/06/18 05:01:34.087, True, 2.985, 0.135500
2023/06/18 05:01:34.583, True, 2.700, 0.135424
2023/06/18 05:01:35.088, True, 2.980, 0.135729
2023/06/18 05:01:35.583, True, 3.031, 0.137331
2023/06/18 05:01:36.087, True, 2.656, 0.135500
2023/06/18 05:01:36.591, True, 2.982, 0.136034
2023/06/18 05:01:37.087, True, 3.036, 0.138476
2023/06/18 05:01:37.591, True, 2.652, 0.133822
2023/06/18 05:01:38.095, True, 2.987, 0.136263
2023/06/18 05:01:38.591, True, 2.695, 0.133822
2023/06/18 05:01:39.095, True, 2.649, 0.136568
2023/06/18 05:01:39.599, True, 2.985, 0.135653
2023/06/18 05:01:40.103, True, 2.652, 0.136263
2023/06/18 05:01:40.599, True, 2.695, 0.134890
2023/06/18 05:01:41.103, True, 2.984, 0.134966
2023/06/18 05:01:41.607, True, 2.984, 0.135576
2023/06/18 05:01:42.103, True, 2.699, 0.133974
2023/06/18 05:01:42.607, True, 2.984, 0.133745
2023/06/18 05:01:43.112, True, 2.982, 0.135119
2023/06/18 05:01:43.607, True, 2.696, 0.135500
2023/06/18 05:01:44.111, True, 2.653, 0.134661
2023/06/18 05:01:44.607, True, 3.033, 0.134127
2023/06/18 05:01:45.110, True, 2.654, 0.134890
2023/06/18 05:01:45.615, True, 2.654, 0.135195
2023/06/18 05:01:46.111, True, 3.029, 0.133822
2023/06/18 05:01:46.615, True, 2.654, 0.135119
2023/06/18 05:01:47.119, True, 2.987, 0.134661
2023/06/18 05:01:47.615, True, 3.032, 0.135348
2023/06/18 05:01:48.119, True, 2.985, 0.133822
2023/06/18 05:01:48.623, True, 2.650, 0.134966
2023/06/18 05:01:49.119, True, 2.699, 0.136797
2023/06/18 05:01:49.623, True, 2.983, 0.135119
2023/06/18 05:01:50.127, True, 2.652, 0.133288
2023/06/18 05:01:50.631, True, 2.982, 0.133745
2023/06/18 05:01:51.126, True, 2.696, 0.136110
2023/06/18 05:01:51.631, True, 2.984, 0.135958
2023/06/18 05:01:52.135, True, 2.655, 0.134508
2023/06/18 05:01:52.631, True, 3.035, 0.133211
2023/06/18 05:01:53.135, True, 2.984, 0.135576
2023/06/18 05:01:53.638, True, 2.653, 0.133440
2023/06/18 05:01:54.135, True, 3.030, 0.137636
2023/06/18 05:01:54.639, True, 2.652, 0.132982
2023/06/18 05:01:55.143, True, 2.652, 0.133974
2023/06/18 05:01:55.638, True, 3.032, 0.133593
2023/06/18 05:01:56.143, True, 2.984, 0.135119
2023/06/18 05:01:56.647, True, 2.657, 0.135042
2023/06/18 05:01:57.143, True, 2.692, 0.132143
2023/06/18 05:01:57.647, True, 2.988, 0.134813
2023/06/18 05:01:58.151, True, 2.980, 0.133669
2023/06/18 05:01:58.655, True, 2.654, 0.133974
2023/06/18 05:01:59.151, True, 3.033, 0.134051
2023/06/18 05:01:59.655, True, 2.652, 0.135805
2023/06/18 05:02:00.159, True, 2.985, 0.133516
2023/06/18 05:02:00.655, True, 2.694, 0.136339
2023/06/18 05:02:01.159, True, 2.985, 0.135195
2023/06/18 05:02:01.663, True, 2.654, 0.133364
2023/06/18 05:02:02.159, True, 3.031, 0.134356
2023/06/18 05:02:02.663, True, 2.653, 0.132525
2023/06/18 05:02:03.167, True, 2.987, 0.134737
2023/06/18 05:02:03.663, True, 2.692, 0.134966
2023/06/18 05:02:04.167, True, 2.991, 0.134279
2023/06/18 05:02:04.671, True, 2.982, 0.135119
2023/06/18 05:02:05.167, True, 2.693, 0.135042
2023/06/18 05:02:05.671, True, 2.989, 0.135195
2023/06/18 05:02:06.175, True, 2.651, 0.133135
2023/06/18 05:02:06.672, True, 3.029, 0.135424
2023/06/18 05:02:07.175, True, 2.655, 0.133059
2023/06/18 05:02:07.679, True, 2.983, 0.135119
2023/06/18 05:02:08.175, True, 2.698, 0.134737
2023/06/18 05:02:08.679, True, 2.980, 0.135119
2023/06/18 05:02:09.183, True, 2.654, 0.135424
2023/06/18 05:02:09.679, True, 3.037, 0.133211
2023/06/18 05:02:10.183, True, 2.653, 0.134356
2023/06/18 05:02:10.686, True, 2.980, 0.132372
2023/06/18 05:02:11.191, True, 2.655, 0.135500
2023/06/18 05:02:11.687, True, 3.029, 0.132677
2023/06/18 05:02:12.191, True, 2.991, 0.134966
2023/06/18 05:02:12.695, True, 2.647, 0.134051
2023/06/18 05:02:13.190, True, 3.034, 0.134127
2023/06/18 05:02:13.695, True, 2.653, 0.134203
2023/06/18 05:02:14.191, True, 2.695, 0.133974
2023/06/18 05:02:14.695, True, 2.652, 0.133669
2023/06/18 05:02:15.199, True, 2.653, 0.132830
2023/06/18 05:02:15.703, True, 2.987, 0.133593
2023/06/18 05:02:16.199, True, 2.696, 0.132525
2023/06/18 05:02:16.703, True, 2.983, 0.133288
2023/06/18 05:02:17.207, True, 2.984, 0.133288
2023/06/18 05:02:17.703, True, 3.035, 0.134737
2023/06/18 05:02:18.207, True, 2.653, 0.132830
2023/06/18 05:02:18.711, True, 2.651, 0.133440
2023/06/18 05:02:19.207, True, 2.696, 0.134966
2023/06/18 05:02:19.711, True, 2.984, 0.134127
2023/06/18 05:02:20.215, True, 2.654, 0.132525
2023/06/18 05:02:20.719, True, 2.983, 0.131838
2023/06/18 05:02:21.216, True, 2.698, 0.132906
2023/06/18 05:02:21.719, True, 2.650, 0.135348
2023/06/18 05:02:22.215, True, 3.037, 0.132448
2023/06/18 05:02:22.719, True, 2.979, 0.131151
2023/06/18 05:02:23.223, True, 2.655, 0.132296
2023/06/18 05:02:23.727, True, 2.983, 0.134585
2023/06/18 05:02:24.223, True, 2.698, 0.133059
2023/06/18 05:02:24.727, True, 2.985, 0.132525
2023/06/18 05:02:25.231, True, 2.651, 0.132982
2023/06/18 05:02:25.727, True, 3.034, 0.134127
2023/06/18 05:02:26.231, True, 2.648, 0.133974
2023/06/18 05:02:26.734, True, 2.987, 0.132830
2023/06/18 05:02:27.239, True, 2.653, 0.134508
2023/06/18 05:02:27.735, True, 3.030, 0.133593
2023/06/18 05:02:28.239, True, 2.653, 0.134737
2023/06/18 05:02:28.735, True, 3.032, 0.133440
2023/06/18 05:02:29.239, True, 2.655, 0.133211
2023/06/18 05:02:29.742, True, 2.988, 0.133211
2023/06/18 05:02:30.239, True, 2.692, 0.131838
2023/06/18 05:02:30.743, True, 2.988, 0.134127
2023/06/18 05:02:31.247, True, 2.979, 0.133822
2023/06/18 05:02:31.743, True, 2.699, 0.133059
2023/06/18 05:02:32.246, True, 2.981, 0.132830
2023/06/18 05:02:32.751, True, 2.654, 0.130770
2023/06/18 05:02:33.247, True, 3.035, 0.132525
2023/06/18 05:02:33.751, True, 2.652, 0.132372
2023/06/18 05:02:34.255, True, 2.981, 0.132143
2023/06/18 05:02:34.751, True, 2.700, 0.133516
2023/06/18 05:02:35.255, True, 2.649, 0.131533
2023/06/18 05:02:35.759, True, 2.986, 0.133440
2023/06/18 05:02:36.263, True, 2.653, 0.132219
2023/06/18 05:02:36.759, True, 2.695, 0.133211
2023/06/18 05:02:37.263, True, 2.988, 0.133135
2023/06/18 05:02:37.766, True, 2.648, 0.132753
2023/06/18 05:02:38.263, True, 3.037, 0.135119
2023/06/18 05:02:38.767, True, 2.985, 0.133440
2023/06/18 05:02:39.271, True, 2.651, 0.132372
2023/06/18 05:02:39.775, True, 2.987, 0.132219
2023/06/18 05:02:40.271, True, 2.690, 0.133288
2023/06/18 05:02:40.775, True, 2.986, 0.132372
2023/06/18 05:02:41.279, True, 2.654, 0.134203
2023/06/18 05:02:41.775, True, 2.694, 0.133593
2023/06/18 05:02:42.279, True, 2.987, 0.133898
2023/06/18 05:02:42.783, True, 2.654, 0.131151
2023/06/18 05:02:43.279, True, 3.028, 0.133288
2023/06/18 05:02:43.783, True, 2.654, 0.133135
2023/06/18 05:02:44.287, True, 2.986, 0.131685
2023/06/18 05:02:44.783, True, 3.033, 0.132906
2023/06/18 05:02:45.287, True, 2.656, 0.132067
2023/06/18 05:02:45.790, True, 2.653, 0.133516
2023/06/18 05:02:46.287, True, 2.696, 0.132677
2023/06/18 05:02:46.791, True, 2.982, 0.131380
2023/06/18 05:02:47.295, True, 2.980, 0.133745
2023/06/18 05:02:47.799, True, 2.655, 0.130846
2023/06/18 05:02:48.295, True, 3.030, 0.132982
2023/06/18 05:02:48.799, True, 2.656, 0.132143
2023/06/18 05:02:49.303, True, 2.981, 0.135119
2023/06/18 05:02:49.799, True, 2.697, 0.132143
2023/06/18 05:02:50.303, True, 2.655, 0.132906
2023/06/18 05:02:50.807, True, 2.982, 0.132067
2023/06/18 05:02:51.302, True, 2.695, 0.131151
2023/06/18 05:02:51.807, True, 2.988, 0.132982
2023/06/18 05:02:52.311, True, 2.649, 0.133669
2023/06/18 05:02:52.807, True, 3.034, 0.133059
2023/06/18 05:02:53.311, True, 2.655, 0.133745
2023/06/18 05:02:53.815, True, 2.984, 0.131838
2023/06/18 05:02:54.311, True, 2.697, 0.130770
2023/06/18 05:02:54.815, True, 2.648, 0.133593
2023/06/18 05:02:55.319, True, 2.986, 0.131151
2023/06/18 05:02:55.815, True, 2.696, 0.132525
2023/06/18 05:02:56.319, True, 2.988, 0.132219
2023/06/18 05:02:56.822, True, 2.652, 0.134890
2023/06/18 05:02:57.327, True, 2.984, 0.130999
2023/06/18 05:02:57.823, True, 2.691, 0.131838
2023/06/18 05:02:58.327, True, 2.989, 0.133288
2023/06/18 05:02:58.831, True, 2.652, 0.130617
2023/06/18 05:02:59.327, True, 3.029, 0.133211
2023/06/18 05:02:59.831, True, 2.990, 0.132525
2023/06/18 05:03:00.335, True, 2.978, 0.132448
2023/06/18 05:03:00.831, True, 2.699, 0.130999
2023/06/18 05:03:01.335, True, 2.982, 0.131228
2023/06/18 05:03:01.831, True, 2.695, 0.133974
2023/06/18 05:03:02.335, True, 2.987, 0.130541
2023/06/18 05:03:02.839, True, 2.982, 0.132677
2023/06/18 05:03:03.335, True, 2.701, 0.132982
2023/06/18 05:03:03.839, True, 2.985, 0.132830
2023/06/18 05:03:04.343, True, 2.980, 0.133364
2023/06/18 05:03:04.847, True, 2.653, 0.131533
2023/06/18 05:03:05.343, True, 3.032, 0.131228
2023/06/18 05:03:05.846, True, 2.984, 0.132601
2023/06/18 05:03:06.351, True, 2.989, 0.133822
2023/06/18 05:03:06.846, True, 2.696, 0.131991
2023/06/18 05:03:07.351, True, 2.979, 0.133974
2023/06/18 05:03:07.855, True, 2.658, 0.134356
2023/06/18 05:03:08.358, True, 2.978, 0.131151
2023/06/18 05:03:08.854, True, 2.700, 0.131304
2023/06/18 05:03:09.359, True, 2.981, 0.133440
2023/06/18 05:03:09.863, True, 2.653, 0.132067
2023/06/18 05:03:10.359, True, 3.031, 0.131838
2023/06/18 05:03:10.863, True, 2.655, 0.132296
2023/06/18 05:03:11.366, True, 2.656, 0.134661
2023/06/18 05:03:11.870, True, 2.984, 0.132601
2023/06/18 05:03:12.367, True, 2.690, 0.132448
2023/06/18 05:03:12.871, True, 2.655, 0.131838
2023/06/18 05:03:13.374, True, 2.987, 0.131914
2023/06/18 05:03:13.871, True, 2.695, 0.129931
2023/06/18 05:03:14.375, True, 2.652, 0.133516
2023/06/18 05:03:14.878, True, 2.655, 0.129778
2023/06/18 05:03:15.382, True, 2.985, 0.132143
2023/06/18 05:03:15.879, True, 3.030, 0.131991
2023/06/18 05:03:16.383, True, 2.652, 0.132448
2023/06/18 05:03:16.886, True, 2.987, 0.132982
2023/06/18 05:03:17.382, True, 2.695, 0.133822
2023/06/18 05:03:17.887, True, 2.651, 0.133974
2023/06/18 05:03:18.391, True, 2.986, 0.130541
2023/06/18 05:03:18.887, True, 2.693, 0.132296
2023/06/18 05:03:19.391, True, 2.986, 0.131991
2023/06/18 05:03:19.895, True, 2.655, 0.132525
2023/06/18 05:03:20.399, True, 2.984, 0.132372
2023/06/18 05:03:20.895, True, 2.694, 0.130846
2023/06/18 05:03:21.399, True, 2.987, 0.131456
2023/06/18 05:03:21.902, True, 2.981, 0.132219
2023/06/18 05:03:22.399, True, 2.697, 0.132601
2023/06/18 05:03:22.903, True, 2.656, 0.131914
2023/06/18 05:03:23.406, True, 2.983, 0.131456
2023/06/18 05:03:23.903, True, 2.692, 0.133669
2023/06/18 05:03:24.406, True, 2.653, 0.134127
2023/06/18 05:03:24.911, True, 2.987, 0.131456
2023/06/18 05:03:25.414, True, 2.652, 0.131991
2023/06/18 05:03:25.911, True, 3.030, 0.131991
2023/06/18 05:03:26.415, True, 2.991, 0.131380
2023/06/18 05:03:26.919, True, 2.984, 0.131228
2023/06/18 05:03:27.415, True, 2.691, 0.134279
2023/06/18 05:03:27.919, True, 2.984, 0.133364
2023/06/18 05:03:28.422, True, 2.989, 0.130694
2023/06/18 05:03:28.919, True, 2.692, 0.132296
2023/06/18 05:03:29.423, True, 2.983, 0.130694
2023/06/18 05:03:29.927, True, 2.658, 0.132982
2023/06/18 05:03:30.423, True, 3.029, 0.131304
2023/06/18 05:03:30.927, True, 2.655, 0.130846
2023/06/18 05:03:31.431, True, 2.986, 0.132067
2023/06/18 05:03:31.927, True, 2.694, 0.131304
2023/06/18 05:03:32.430, True, 2.987, 0.132830
2023/06/18 05:03:32.935, True, 2.980, 0.132525
2023/06/18 05:03:33.431, True, 2.698, 0.130159
2023/06/18 05:03:33.934, True, 2.652, 0.131533
2023/06/18 05:03:34.438, True, 2.653, 0.132372
2023/06/18 05:03:34.935, True, 3.033, 0.129091
2023/06/18 05:03:35.439, True, 2.655, 0.132448
2023/06/18 05:03:35.943, True, 2.981, 0.130541
2023/06/18 05:03:36.439, True, 2.694, 0.133211
2023/06/18 05:03:36.943, True, 2.986, 0.133059
2023/06/18 05:03:37.447, True, 2.654, 0.132906
2023/06/18 05:03:37.942, True, 2.696, 0.132067
2023/06/18 05:03:38.446, True, 2.984, 0.132067
2023/06/18 05:03:38.951, True, 2.981, 0.131914
2023/06/18 05:03:39.447, True, 2.695, 0.132677
2023/06/18 05:03:39.951, True, 2.989, 0.131075
2023/06/18 05:03:40.455, True, 2.650, 0.130617
2023/06/18 05:03:40.951, True, 2.698, 0.130999
2023/06/18 05:03:41.455, True, 2.981, 0.133135
2023/06/18 05:03:41.959, True, 2.655, 0.129778
2023/06/18 05:03:42.455, True, 3.033, 0.130312
2023/06/18 05:03:42.959, True, 2.650, 0.131991
2023/06/18 05:03:43.454, True, 3.033, 0.131533
2023/06/18 05:03:43.959, True, 2.653, 0.131685
2023/06/18 05:03:44.463, True, 2.989, 0.130388
2023/06/18 05:03:44.967, True, 2.650, 0.132830
2023/06/18 05:03:45.463, True, 2.698, 0.131228
2023/06/18 05:03:45.967, True, 2.984, 0.132753
2023/06/18 05:03:46.471, True, 2.653, 0.133135
2023/06/18 05:03:46.967, True, 3.032, 0.131762
2023/06/18 05:03:47.470, True, 2.651, 0.132219
2023/06/18 05:03:47.975, True, 2.987, 0.131685
2023/06/18 05:03:48.470, True, 2.697, 0.132219
2023/06/18 05:03:48.975, True, 2.649, 0.132372
2023/06/18 05:03:49.479, True, 2.988, 0.130465
2023/06/18 05:03:49.974, True, 2.695, 0.130312
2023/06/18 05:03:50.479, True, 2.980, 0.130465
2023/06/18 05:03:50.983, True, 2.658, 0.133440
2023/06/18 05:03:51.487, True, 2.979, 0.132906
2023/06/18 05:03:51.983, True, 2.696, 0.132982
2023/06/18 05:03:52.487, True, 2.983, 0.130999
2023/06/18 05:03:52.983, True, 2.696, 0.130999
2023/06/18 05:03:53.487, True, 2.987, 0.130541
2023/06/18 05:03:53.991, True, 2.652, 0.131456
2023/06/18 05:03:54.486, True, 3.031, 0.130999
2023/06/18 05:03:54.991, True, 2.985, 0.133364
2023/06/18 05:03:55.495, True, 2.652, 0.130083
2023/06/18 05:03:55.999, True, 2.988, 0.133288
2023/06/18 05:03:56.495, True, 2.695, 0.131075
2023/06/18 05:03:56.999, True, 2.985, 0.132753
2023/06/18 05:03:57.495, True, 2.693, 0.132753
2023/06/18 05:03:57.999, True, 2.984, 0.133440
2023/06/18 05:03:58.503, True, 2.653, 0.131838
2023/06/18 05:03:58.999, True, 3.035, 0.130388
2023/06/18 05:03:59.503, True, 2.651, 0.131533
2023/06/18 05:04:00.007, True, 2.990, 0.132372
2023/06/18 05:04:00.503, True, 2.695, 0.132830
2023/06/18 05:04:01.007, True, 2.648, 0.133364
2023/06/18 05:04:01.511, True, 2.987, 0.130694
2023/06/18 05:04:02.014, True, 2.655, 0.133364
2023/06/18 05:04:02.511, True, 2.691, 0.128634
2023/06/18 05:04:03.014, True, 2.990, 0.131685
2023/06/18 05:04:03.510, True, 2.693, 0.130770
2023/06/18 05:04:04.014, True, 2.654, 0.130159
2023/06/18 05:04:04.519, True, 2.980, 0.131991
2023/06/18 05:04:05.015, True, 2.695, 0.131838
2023/06/18 05:04:05.519, True, 2.987, 0.132525
2023/06/18 05:04:06.022, True, 2.652, 0.131075
2023/06/18 05:04:06.518, True, 3.035, 0.130694
2023/06/18 05:04:07.023, True, 2.981, 0.131838
2023/06/18 05:04:07.526, True, 2.652, 0.131991
2023/06/18 05:04:08.023, True, 3.039, 0.131991
2023/06/18 05:04:08.527, True, 2.651, 0.131075
2023/06/18 05:04:09.031, True, 2.986, 0.130922
2023/06/18 05:04:09.526, True, 2.692, 0.130617
2023/06/18 05:04:10.030, True, 2.986, 0.130694
2023/06/18 05:04:10.534, True, 2.653, 0.131228
2023/06/18 05:04:11.031, True, 3.030, 0.131228